Weather History for KBIH - November, 2011

Change the Weather History Date:

Friday, November 18, 2011

  Actual Average Record
Temperature  
Mean Temperature 45 °F 44 °F  
Max Temperature 69 °F 61 °F 77 °F (1976)
Min Temperature 20 °F 27 °F 10 °F (1964)
Degree Days  
Heating Degree Days 20 21  
Month to date heating degree days 432 316  
Since 1 July heating degree days 658 623  
Cooling Degree Days 0 0  
Month to date cooling degree days 0 0  
Year to date cooling degree days 929 1104  
Moisture  
Dew Point 14 °F    
Average Humidity 49    
Maximum Humidity 91    
Minimum Humidity 7    
Precipitation  
Precipitation 0.00 in 0.02 in 0.51 in (1950)
Month to date precipitation 0.05 0.30  
Year to date precipitation 3.10 4.16  
Snow  
Snow 0.00 in 0.10 in T in (2002)
Month to date snowfall 0.0 0.2  
Since 1 July snowfall 0.0 0.2  
Since 1 September snowfall 0.0 0.2  
Snow Depth 0.00 in    
Sea Level Pressure  
Sea Level Pressure 29.64 in    
Wind  
Wind Speed 9 mph (NW)    
Max Wind Speed 43 mph    
Max Gust Speed 59 mph    
Visibility 10 miles    
Events      
T = Trace of Precipitation, MM = Missing Value Source: NWS Daily Summary

Daily Weather History Graph

Daily Weather History Graph

Search for Another Location

Airport or City:

Trip Planner

Search our weather history database for the weather conditions in past years. The results will help you decide how hot, cold, wet, or windy it might be!

Date:

Astronomy

Nov. 18, 2011 Rise Set
Actual Time 6:35 AM PST 4:41 PM PST
Civil Twilight 6:07 AM PST 5:09 PM PST
Nautical Twilight 5:36 AM PST 5:40 PM PST
Astronomical Twilight 5:05 AM PST 6:11 PM PST
Moon No Moon Rise 12:21 PM PST (11/18)
Length of Visible Light 11h 01m
Length of Day
10h 05m
Waning Gibbous, 48% of the Moon is Illuminated
Nov 18
Waning Gibbous
Nov 24
New
Dec 2
First Quarter
Dec 10
Full
Dec 17
Last Quarter

Hourly Weather History & Observations

Time (PST) Temp. Windchill Dew Point Humidity Pressure Visibility Wind Dir Wind Speed Gust Speed Precip Events Conditions
12:56 AM 27.0 °F 20.5 °F 21.9 °F 81% 29.87 in 10.0 mi NNE 5.8 mph - N/A   Clear
1:56 AM 28.0 °F 21.7 °F 21.9 °F 78% 29.84 in 10.0 mi NNW 5.8 mph - N/A   Clear
3:56 AM 25.0 °F - 21.0 °F 85% 29.81 in 10.0 mi Calm Calm - N/A   Clear
4:56 AM 23.0 °F 17.0 °F 19.9 °F 88% 29.80 in 10.0 mi Variable 4.6 mph - N/A   Clear
5:56 AM 19.9 °F 12.1 °F 18.0 °F 92% 29.80 in 10.0 mi ENE 5.8 mph - N/A   Clear
6:56 AM 24.1 °F 15.2 °F 19.9 °F 84% 29.79 in 10.0 mi West 8.1 mph - N/A   Clear
7:56 AM 30.9 °F 25.2 °F 24.1 °F 76% 29.78 in 10.0 mi ENE 5.8 mph - N/A   Clear
8:56 AM 41.0 °F 38.0 °F 27.0 °F 57% 29.74 in 10.0 mi North 4.6 mph - N/A   Clear
9:56 AM 48.0 °F - 27.0 °F 44% 29.72 in 10.0 mi Variable 4.6 mph - N/A   Clear
10:56 AM 53.1 °F - 27.0 °F 37% 29.67 in 10.0 mi Calm Calm - N/A   Clear
11:56 AM 60.1 °F - 25.0 °F 26% 29.61 in 10.0 mi Calm Calm - N/A   Clear
12:52 PM 69.8 °F - 12.2 °F 11% 29.60 in 10.0 mi West 17.3 mph 47.2 mph 0.00 in   Clear
12:56 PM 68.0 °F - 12.9 °F 12% 29.55 in 10.0 mi WSW 35.7 mph 47.2 mph 0.00 in   Clear
1:51 PM 68.0 °F - 16.0 °F 14% 29.55 in 10.0 mi NW 13.8 mph 20.7 mph N/A   Clear
1:58 PM 66.2 °F - 15.8 °F 14% 29.61 in 10.0 mi West 21.9 mph 39.1 mph N/A   Clear
2:07 PM 66.2 °F - 15.8 °F 14% 29.61 in 10.0 mi West 27.6 mph 41.4 mph N/A   Clear
2:56 PM 68.0 °F - 16.0 °F 14% 29.51 in 10.0 mi West 15.0 mph 32.2 mph N/A   Clear
3:56 PM 64.9 °F - 6.1 °F 10% 29.52 in 10.0 mi WSW 25.3 mph 48.3 mph N/A   Clear
4:56 PM 64.0 °F - -2.9 °F 7% 29.45 in 10.0 mi WSW 26.5 mph 48.3 mph N/A   Clear
5:56 PM 55.0 °F - 8.1 °F 15% 29.52 in 10.0 mi North 12.7 mph - N/A   Clear
6:56 PM 51.1 °F - 6.1 °F 16% 29.54 in 10.0 mi NW 6.9 mph - N/A   Clear
7:56 PM 54.0 °F - 6.1 °F 15% 29.56 in 10.0 mi NE 10.4 mph 19.6 mph N/A   Clear
8:56 PM 52.0 °F - 3.0 °F 14% 29.56 in 10.0 mi NNE 6.9 mph - N/A   Clear
9:56 PM 53.1 °F - -0.9 °F 11% 29.55 in 10.0 mi North 13.8 mph 24.2 mph N/A   Clear
10:56 PM 45.0 °F - 1.0 °F 16% 29.57 in 10.0 mi Calm Calm - N/A   Clear
11:56 PM 43.0 °F 41.3 °F 3.9 °F 20% 29.58 in 10.0 mi NNE 3.5 mph - N/A   Clear